Change the Weather History Date:

Friday, December 14, 2012

  Actual Average (KPBG) Record (KPBG)
Temperature  
Mean Temperature 32 °F 25 °F  
Max Temperature 36 °F 33 °F 45 °F (1975)
Min Temperature 27 °F 17 °F -6 °F (1976)
Degree Days  
Heating Degree Days 34 40  
Month to date heating degree days 521  
Since 1 July heating degree days 2155  
Cooling Degree Days 0 0  
Month to date cooling degree days 0  
Year to date cooling degree days 346  
Moisture  
Dew Point 25 °F    
Average Humidity 70    
Maximum Humidity 80    
Minimum Humidity 62    
Precipitation  
Precipitation 0.00 in - 1.20 in (1977)
Month to date precipitation  
Year to date precipitation  
Sea Level Pressure  
Sea Level Pressure 30.13 in    
Wind  
Wind Speed 7 mph (SW)    
Max Wind Speed 12 mph    
Max Gust Speed 17 mph    
Visibility 10 miles    
Events      
T = Trace of Precipitation, MM = Missing Value Source: NWS Daily Summary

Daily Weather History Graph

Daily Weather History Graph

Search for Another Location

Airport or City:

Trip Planner

Search our weather history database for the weather conditions in past years. The results will help you decide how hot, cold, wet, or windy it might be!

Date:

Astronomy

Dec. 14, 2012 Rise Set
Actual Time 7:23 AM EST 4:11 PM EST
Civil Twilight 6:49 AM EST 4:45 PM EST
Nautical Twilight 6:12 AM EST 5:22 PM EST
Astronomical Twilight 5:36 AM EST 5:58 PM EST
Moon 8:23 AM EST (12/14) 6:03 PM EST (12/14)
Length of Visible Light 9h 55m
Length of Day
8h 48m
Waxing Crescent, 3% of the Moon is Illuminated
Dec 14
Waxing Crescent
Dec 20
First Quarter
Dec 28
Full
Jan 4
Last Quarter
Jan 11
New

Hourly Weather History & Observations

Time (EST) Temp. Windchill Dew Point Humidity Pressure Visibility Wind Dir Wind Speed Gust Speed Precip Events Conditions
12:15 AM 34.3 °F 28.4 °F 23.5 °F 65% 30.21 in - South 6.9 mph - N/A   Overcast
12:35 AM 34.2 °F 26.8 °F 23.7 °F 66% 30.19 in - South 9.2 mph 16.1 mph N/A   Mostly Cloudy
12:55 AM 33.6 °F 26.8 °F 23.7 °F 67% 30.18 in - South 8.1 mph - N/A   Clear
1:15 AM 33.4 °F 26.6 °F 23.4 °F 67% 30.17 in - South 8.1 mph - N/A   Clear
1:35 AM 33.1 °F 26.9 °F 23.0 °F 66% 30.16 in - South 6.9 mph 16.1 mph N/A   Clear
1:55 AM 32.0 °F 24.2 °F 22.8 °F 69% 30.16 in - South 9.2 mph - N/A   Clear
2:15 AM 32.0 °F 24.2 °F 22.8 °F 69% 30.16 in - South 9.2 mph - N/A   Clear
2:35 AM 32.0 °F 25.6 °F 22.8 °F 69% 30.16 in - South 6.9 mph - N/A   Clear
2:55 AM 32.0 °F 24.8 °F 22.8 °F 69% 30.16 in - South 8.1 mph - N/A   Clear
3:15 AM 32.0 °F 25.6 °F 23.0 °F 69% 30.15 in - South 6.9 mph - N/A   Clear
3:35 AM 32.0 °F 25.6 °F 23.0 °F 69% 30.15 in - South 6.9 mph - N/A   Clear
3:55 AM 32.0 °F 24.8 °F 23.0 °F 69% 30.14 in - South 8.1 mph - N/A   Clear
4:15 AM 32.0 °F 24.8 °F 23.4 °F 70% 30.13 in - South 8.1 mph - N/A   Clear
4:35 AM 32.0 °F 26.4 °F 23.0 °F 69% 30.12 in - South 5.8 mph - N/A   Clear
4:55 AM 32.0 °F 25.6 °F 23.0 °F 69% 30.11 in - South 6.9 mph - N/A   Clear
5:15 AM 32.0 °F 24.8 °F 23.0 °F 69% 30.11 in - South 8.1 mph - N/A   Clear
5:35 AM 32.0 °F 24.8 °F 23.0 °F 69% 30.11 in - SSW 8.1 mph - N/A   Clear
6:35 AM 32.0 °F 24.2 °F 23.0 °F 69% 30.09 in - South 9.2 mph - N/A   Scattered Clouds
6:55 AM 32.0 °F 23.6 °F 23.0 °F 69% 30.09 in - South 10.4 mph 16.1 mph N/A   Overcast
7:15 AM 32.0 °F 25.6 °F 23.0 °F 69% 30.08 in - South 6.9 mph - N/A   Overcast
7:35 AM 32.0 °F 24.8 °F 23.0 °F 69% 30.08 in - South 8.1 mph - N/A   Overcast
7:55 AM 32.0 °F 25.6 °F 23.0 °F 69% 30.08 in - South 6.9 mph - N/A   Scattered Clouds
8:15 AM 32.0 °F 24.8 °F 23.0 °F 69% 30.08 in - South 8.1 mph - N/A   Scattered Clouds
8:35 AM 32.0 °F 24.2 °F 22.8 °F 69% 30.07 in - South 9.2 mph - N/A   Clear
8:55 AM 33.1 °F 26.1 °F 23.2 °F 67% 30.08 in - South 8.1 mph - N/A   Clear
9:15 AM 34.0 °F 27.2 °F 23.9 °F 67% 30.07 in - South 8.1 mph - N/A   Scattered Clouds
9:35 AM 34.3 °F 26.5 °F 23.5 °F 65% 30.07 in - South 10.4 mph 17.3 mph N/A   Mostly Cloudy
9:55 AM 34.3 °F 27.7 °F 23.7 °F 65% 30.08 in - South 8.1 mph - N/A   Overcast
10:15 AM 34.3 °F 29.2 °F 23.0 °F 63% 30.08 in - SSW 5.8 mph - N/A   Overcast
10:35 AM 34.7 °F 28.1 °F 23.0 °F 62% 30.07 in - South 8.1 mph - N/A   Overcast
11:15 AM 36.3 °F 32.5 °F 24.6 °F 63% 30.06 in 10.0 mi South 4.6 mph - N/A   Overcast
11:35 AM 36.7 °F 32.0 °F 25.2 °F 63% 30.05 in 10.0 mi SW 5.8 mph - N/A   Overcast
11:55 AM 36.9 °F 33.1 °F 25.5 °F 64% 30.05 in 10.0 mi SSW 4.6 mph - N/A   Overcast
12:15 PM 36.7 °F 32.0 °F 26.2 °F 66% 30.05 in 10.0 mi SSW 5.8 mph - N/A   Overcast
12:35 PM 36.7 °F 32.9 °F 26.6 °F 67% 30.05 in 10.0 mi SW 4.6 mph - N/A   Overcast
12:55 PM 36.7 °F 32.9 °F 26.8 °F 67% 30.05 in 10.0 mi SSW 4.6 mph - N/A   Overcast
1:15 PM 36.9 °F 33.1 °F 27.1 °F 68% 30.05 in 10.0 mi SW 4.6 mph - N/A   Overcast
1:35 PM 36.9 °F 34.3 °F 27.5 °F 69% 30.05 in 10.0 mi South 3.5 mph - N/A   Overcast
2:15 PM 36.9 °F 34.3 °F 28.0 °F 70% 30.06 in 10.0 mi West 3.5 mph - N/A   Overcast
2:35 PM 36.9 °F 32.2 °F 27.5 °F 69% 30.07 in 10.0 mi West 5.8 mph - N/A   Overcast
2:55 PM 36.9 °F 33.1 °F 27.5 °F 69% 30.07 in 10.0 mi West 4.6 mph - N/A   Overcast
3:15 PM 36.9 °F 34.3 °F 27.5 °F 69% 30.08 in 10.0 mi West 3.5 mph - N/A   Overcast
3:35 PM 36.9 °F 34.3 °F 27.9 °F 70% 30.09 in 10.0 mi West 3.5 mph - N/A   Overcast
3:55 PM 36.9 °F 33.1 °F 28.0 °F 70% 30.10 in 10.0 mi WNW 4.6 mph - N/A   Overcast
4:15 PM 36.9 °F 34.3 °F 28.2 °F 71% 30.10 in 10.0 mi WNW 3.5 mph - N/A   Overcast
4:35 PM 36.9 °F 34.3 °F 28.0 °F 70% 30.11 in 10.0 mi WNW 3.5 mph - N/A   Overcast
4:55 PM 36.9 °F 34.3 °F 28.4 °F 71% 30.13 in 10.0 mi WNW 3.5 mph - N/A   Overcast
5:35 PM 36.0 °F 33.3 °F 28.6 °F 75% 30.14 in 10.0 mi WNW 3.5 mph - N/A   Overcast
5:55 PM 35.4 °F 31.5 °F 28.2 °F 75% 30.14 in 10.0 mi WNW 4.6 mph - N/A   Overcast
6:15 PM 35.4 °F 31.5 °F 28.2 °F 75% 30.15 in 10.0 mi WNW 4.6 mph - N/A   Overcast
6:35 PM 34.9 °F 32.0 °F 27.9 °F 76% 30.15 in 10.0 mi WNW 3.5 mph - N/A   Overcast
6:55 PM 34.9 °F 30.8 °F 28.0 °F 76% 30.16 in 10.0 mi WNW 4.6 mph - N/A   Overcast
7:15 PM 34.7 °F 30.6 °F 27.9 °F 76% 30.16 in 10.0 mi West 4.6 mph - N/A   Overcast
7:55 PM 34.3 °F 31.4 °F 27.9 °F 77% 30.17 in 10.0 mi WNW 3.5 mph - N/A   Overcast
8:15 PM 34.3 °F 29.2 °F 28.0 °F 78% 30.17 in 10.0 mi WNW 5.8 mph - N/A   Overcast
8:35 PM 34.3 °F 31.4 °F 28.4 °F 79% 30.18 in 10.0 mi NW 3.5 mph - N/A   Overcast
8:55 PM 34.3 °F 31.4 °F 28.8 °F 80% 30.19 in 10.0 mi West 3.5 mph - N/A   Overcast
9:15 PM 34.3 °F 30.2 °F 28.0 °F 78% 30.19 in 10.0 mi NW 4.6 mph - N/A   Overcast
9:35 PM 32.9 °F 25.9 °F 26.2 °F 76% 30.20 in 10.0 mi North 8.1 mph - N/A   Overcast
9:55 PM 32.0 °F 24.8 °F 23.9 °F 72% 30.21 in - North 8.1 mph - N/A   Overcast
10:15 PM 32.0 °F 24.8 °F 23.9 °F 72% 30.22 in - North 8.1 mph - N/A   Overcast
10:35 PM 29.7 °F 20.1 °F 21.2 °F 71% 30.23 in - North 11.5 mph 16.1 mph N/A   Overcast
11:15 PM 27.1 °F 17.5 °F 18.9 °F 71% 30.25 in - North 10.4 mph 16.1 mph N/A   Overcast
11:35 PM 27.1 °F 18.9 °F 18.9 °F 71% 30.25 in - North 8.1 mph - N/A   Overcast
11:55 PM 27.1 °F 16.9 °F 18.3 °F 69% 30.27 in - North 11.5 mph 16.1 mph N/A   Overcast